星链-32565 (STARLINK-32565)

导读 | 豆包AI

STARLINK-32565是美国SpaceX星链星座中的一颗卫星,于2024年11月30日发射入轨。星链计划旨在构建全球卫星互联网星座,为全球范围提供低延迟、高速率的宽带互联网服务。该卫星延续星链标准设计,承担通信组网任务,扩充了星链星座的全球覆盖能力与服务容量,支撑低轨卫星互联网的持续运营与服务升级。

基本信息
目录编号:
62182
目录名称:
STARLINK-32565
国际标识:
2024-225V
轨道中心:
EARTH
卫星名称:
星链-32565
卫星全名:
星链-32565 (STARLINK-32565)
卫星状态:
在轨 (已飞行470 天)
发射日期:
2024-11-30 UTC
国别 :
美国 (US)
星等 :
--
轨道信息
数据来源 国际轨道数据
星历时间: 2026-03-15T06:07:38+0800
8小时前
查看轨道信息
半长轴: 6950.158km
偏心率: 0.0003279
轨道倾角: 70.002°
近地点辐角 277.100°
升交点赤经 151.070°
平近点角 82.979°
近地点: 569.742km
远地点: 574.3km
周期: 96.106分钟
每日圈数: 14.983414
详细信息
固有亮度:
5
最大亮度:
2.5
卫星平台:
Starlink V1.0
覆盖范围:
全球
运营商:
太空探索技术公司
运营商所在国:
美国
制造商(研发单位):
太空探索技术公司
制造商所在国:
美国
使用方式:
暂无
卫星简介
Starlink 计划是 SpaceX 推出的全球卫星互联网项目,通过发射低轨道卫星,为全球尤其是偏远地区提供高速、低延迟的互联网服务。自 2019 年起,Starlink 已部署数千颗卫星,旨在缩小全球数字鸿沟,推动互联网普及。该项目还为军事、航空等行业提供通信支持,带来广泛经济效益。
2D轨道图
3D轨道图
轨道高度分析图
轨道倾角分析图
轨道综合分析图
查看轨道综合分析图